When you browse on this site, cookies collect data to enhance your experience and personalize the content and advertising you see.
Visit our Privacy Policy to learn more. By continuing to use the site, you agree to this use of cookies and data.
  • In Österreich
  • Länderverzeichnis
  • Für 7 Tage
  • Wassertemperatur
  • Wetterkarte
  • News
  • Widgets
  • user-avatar
    Anmelden

    Stündliche Wetter Pamporowo

    Heute, 25 Januar, Samstag

    Zeit Temperatur Niederschläge Wind Luftdruck Luftfeuchtigkeit
    00:00 -3°C° 0 mm 1 m/S 628 mmHg 53%
    01:00 -2°C° 0 mm 1 m/S 627 mmHg 50%
    02:00 -2°C° 0 mm 1 m/S 627 mmHg 47%
    03:00 -2°C° 0 mm 1 m/S 627 mmHg 44%
    04:00 -2°C° 0 mm 1 m/S 626 mmHg 41%
    05:00 -2°C° 0 mm 1 m/S 626 mmHg 38%
    06:00 -2°C° 0 mm 1 m/S 626 mmHg 36%
    07:00 -2°C° 0 mm 1 m/S 626 mmHg 33%
    08:00 -1°C° 0 mm 1 m/S 627 mmHg 32%
    09:00 +1°C° 0 mm 1 m/S 628 mmHg 31%
    10:00 +3°C° 0 mm 1 m/S 629 mmHg 29%
    11:00 +6°C° 0 mm 1 m/S 630 mmHg 28%
    12:00 +6°C° 0 mm 1 m/S 629 mmHg 30%
    13:00 +6°C° 0 mm 1 m/S 629 mmHg 32%
    14:00 +7°C° 0 mm 1 m/S 629 mmHg 35%
    15:00 +5°C° 0 mm 1 m/S 628 mmHg 44%
    16:00 +3°C° 0 mm 1 m/S 627 mmHg 54%
    17:00 0°C° 0 mm 0 m/S 626 mmHg 64%
    18:00 0°C° 0 mm 1 m/S 626 mmHg 63%
    19:00 -1°C° 0 mm 1 m/S 626 mmHg 63%
    20:00 -1°C° 0 mm 1 m/S 626 mmHg 63%
    21:00 -1°C° 0 mm 1 m/S 626 mmHg 61%
    22:00 -2°C° 0 mm 1 m/S 626 mmHg 59%
    23:00 -2°C° 0 mm 1 m/S 626 mmHg 57%

    Morgen, 26 Januar, Sonntag

    Zeit Temperatur Niederschläge Wind Luftdruck Luftfeuchtigkeit
    00:00 -2°C° 0 mm 1 m/S 626 mmHg 56%
    01:00 -1°C° 0 mm 1 m/S 626 mmHg 55%
    02:00 -1°C° 0 mm 1 m/S 626 mmHg 55%
    03:00 -2°C° 0 mm 1 m/S 626 mmHg 55%
    04:00 -2°C° 0 mm 1 m/S 626 mmHg 54%
    05:00 -2°C° 0 mm 1 m/S 625 mmHg 54%
    06:00 -2°C° 0 mm 1 m/S 626 mmHg 54%
    07:00 -2°C° 0 mm 1 m/S 626 mmHg 53%
    08:00 -2°C° 0 mm 1 m/S 626 mmHg 52%
    09:00 +1°C° 0 mm 1 m/S 627 mmHg 49%
    10:00 +2°C° 0 mm 0 m/S 628 mmHg 45%
    11:00 +4°C° 0 mm 0 m/S 629 mmHg 42%
    12:00 +5°C° 0 mm 1 m/S 628 mmHg 43%
    13:00 +5°C° 0 mm 1 m/S 628 mmHg 45%
    14:00 +6°C° 0 mm 1 m/S 628 mmHg 46%
    15:00 +4°C° 0 mm 1 m/S 627 mmHg 54%
    16:00 +3°C° 0 mm 1 m/S 627 mmHg 62%
    17:00 +1°C° 0 mm 1 m/S 626 mmHg 70%
    18:00 +1°C° 0 mm 1 m/S 626 mmHg 72%
    19:00 0°C° 0 mm 1 m/S 625 mmHg 74%
    20:00 -1°C° 0 mm 1 m/S 625 mmHg 76%
    21:00 -1°C° 0 mm 1 m/S 625 mmHg 77%
    22:00 -1°C° 0 mm 1 m/S 625 mmHg 77%
    23:00 -2°C° 0 mm 1 m/S 624 mmHg 78%

    übermorgen, 27 Januar, Montag

    Zeit Temperatur Niederschläge Wind Luftdruck Luftfeuchtigkeit
    00:00 -2°C° 0 mm 1 m/S 624 mmHg 79%
    01:00 -2°C° 0 mm 1 m/S 624 mmHg 81%
    02:00 -2°C° 0 mm 1 m/S 624 mmHg 82%
    03:00 -2°C° 0 mm 1 m/S 624 mmHg 83%
    04:00 -2°C° 0 mm 1 m/S 623 mmHg 84%
    05:00 -2°C° 0 mm 1 m/S 623 mmHg 85%
    06:00 -1°C° 0 mm 1 m/S 623 mmHg 85%
    07:00 -1°C° 0 mm 1 m/S 623 mmHg 84%
    08:00 -2°C° 0 mm 0 m/S 623 mmHg 83%
    09:00 0°C° 0 mm 1 m/S 623 mmHg 80%
    10:00 +1°C° 0 mm 1 m/S 624 mmHg 76%
    11:00 +3°C° 0 mm 1 m/S 624 mmHg 72%
    12:00 +2°C° 0.5 mm 1 m/S 624 mmHg 79%
    13:00 +2°C° 0.5 mm 1 m/S 623 mmHg 86%
    14:00 0°C° 0.5 mm 0 m/S 622 mmHg 92%
    15:00 0°C° 0.5 mm 0 m/S 622 mmHg 94%
    16:00 +1°C° 0.5 mm 1 m/S 622 mmHg 95%
    17:00 0°C° 0.5 mm 1 m/S 621 mmHg 97%
    18:00 0°C° 1.3 mm 1 m/S 621 mmHg 97%
    19:00 0°C° 1.3 mm 1 m/S 621 mmHg 98%
    20:00 0°C° 1.3 mm 1 m/S 621 mmHg 98%
    21:00 0°C° 2.2 mm 1 m/S 621 mmHg 98%
    22:00 0°C° 2.2 mm 1 m/S 621 mmHg 98%
    23:00 0°C° 2.2 mm 1 m/S 621 mmHg 98%

    28 Januar, Dienstag

    Zeit Temperatur Niederschläge Wind Luftdruck Luftfeuchtigkeit
    00:00 -1°C° 1.5 mm 1 m/S 620 mmHg 97%
    01:00 -1°C° 1.5 mm 1 m/S 620 mmHg 97%
    02:00 -3°C° 1.5 mm 2 m/S 620 mmHg 97%
    03:00 -3°C° 0.4 mm 2 m/S 619 mmHg 96%
    04:00 -3°C° 0.4 mm 2 m/S 619 mmHg 96%
    05:00 -3°C° 0.4 mm 2 m/S 619 mmHg 95%
    06:00 -3°C° 0 mm 2 m/S 619 mmHg 95%
    07:00 -2°C° 0 mm 1 m/S 619 mmHg 94%
    08:00 -2°C° 0 mm 1 m/S 619 mmHg 94%
    09:00 -1°C° 0 mm 1 m/S 620 mmHg 88%
    10:00 +1°C° 0 mm 1 m/S 620 mmHg 82%
    11:00 +1°C° 0 mm 0 m/S 621 mmHg 76%
    12:00 +3°C° 0 mm 1 m/S 621 mmHg 73%
    13:00 +4°C° 0 mm 1 m/S 621 mmHg 70%
    14:00 +4°C° 0 mm 1 m/S 621 mmHg 67%
    15:00 +3°C° 0 mm 1 m/S 620 mmHg 73%
    16:00 +2°C° 0 mm 1 m/S 620 mmHg 78%
    17:00 +1°C° 0 mm 1 m/S 619 mmHg 84%
    18:00 0°C° 0 mm 1 m/S 619 mmHg 86%
    19:00 0°C° 0 mm 1 m/S 619 mmHg 88%
    20:00 -1°C° 0 mm 1 m/S 619 mmHg 89%
    21:00 -2°C° 0 mm 1 m/S 619 mmHg 88%
    22:00 -2°C° 0 mm 1 m/S 619 mmHg 86%
    23:00 -2°C° 0 mm 1 m/S 619 mmHg 84%

    29 Januar, Mittwoch

    Zeit Temperatur Niederschläge Wind Luftdruck Luftfeuchtigkeit
    00:00 -2°C° 0 mm 1 m/S 619 mmHg 82%
    01:00 -2°C° 0 mm 1 m/S 619 mmHg 81%
    02:00 -2°C° 0 mm 1 m/S 618 mmHg 79%
    03:00 -2°C° 0 mm 1 m/S 618 mmHg 78%
    04:00 -2°C° 0 mm 1 m/S 618 mmHg 77%
    05:00 -2°C° 0 mm 1 m/S 618 mmHg 76%
    06:00 -2°C° 0 mm 1 m/S 618 mmHg 77%
    07:00 -2°C° 0 mm 1 m/S 618 mmHg 77%
    08:00 -1°C° 0 mm 1 m/S 618 mmHg 77%
    09:00 -2°C° 0 mm 2 m/S 619 mmHg 74%
    10:00 +1°C° 0 mm 2 m/S 620 mmHg 71%
    11:00 +2°C° 0 mm 3 m/S 620 mmHg 67%
    12:00 +2°C° 0 mm 3 m/S 620 mmHg 67%
    13:00 +2°C° 0 mm 3 m/S 620 mmHg 67%
    14:00 +3°C° 0 mm 3 m/S 620 mmHg 66%
    15:00 +2°C° 0 mm 3 m/S 619 mmHg 72%
    16:00 +2°C° 0 mm 2 m/S 619 mmHg 77%
    17:00 +2°C° 0 mm 1 m/S 619 mmHg 82%
    18:00 +1°C° 0 mm 1 m/S 618 mmHg 85%
    19:00 0°C° 0 mm 1 m/S 618 mmHg 87%
    20:00 -1°C° 0 mm 1 m/S 618 mmHg 89%
    21:00 -1°C° 0 mm 1 m/S 618 mmHg 89%
    22:00 -1°C° 0 mm 1 m/S 618 mmHg 89%
    23:00 -1°C° 0 mm 1 m/S 618 mmHg 89%

    30 Januar, Donnerstag

    Zeit Temperatur Niederschläge Wind Luftdruck Luftfeuchtigkeit
    00:00 -1°C° 0 mm 1 m/S 618 mmHg 90%
    01:00 -1°C° 0 mm 1 m/S 617 mmHg 90%
    02:00 -1°C° 0 mm 1 m/S 617 mmHg 90%
    03:00 -2°C° 0 mm 1 m/S 617 mmHg 91%
    04:00 -2°C° 0 mm 1 m/S 617 mmHg 92%
    05:00 -2°C° 0 mm 1 m/S 617 mmHg 92%
    06:00 -2°C° 0.4 mm 1 m/S 618 mmHg 92%
    07:00 -2°C° 0.4 mm 1 m/S 618 mmHg 93%
    08:00 -4°C° 0.4 mm 2 m/S 619 mmHg 93%
    09:00 -3°C° 0.2 mm 2 m/S 619 mmHg 87%
    10:00 -2°C° 0.2 mm 2 m/S 620 mmHg 80%
    11:00 -2°C° 0.2 mm 2 m/S 621 mmHg 73%
    12:00 -2°C° 0.2 mm 2 m/S 621 mmHg 70%
    13:00 -2°C° 0.2 mm 3 m/S 621 mmHg 67%
    14:00 -2°C° 0.2 mm 3 m/S 621 mmHg 64%
    15:00 -4°C° 0.1 mm 3 m/S 621 mmHg 63%
    16:00 -5°C° 0.1 mm 3 m/S 621 mmHg 62%
    17:00 -4°C° 0.1 mm 2 m/S 621 mmHg 62%
    18:00 -5°C° 0 mm 2 m/S 621 mmHg 65%
    19:00 -6°C° 0 mm 2 m/S 621 mmHg 68%
    20:00 -8°C° 0 mm 2 m/S 621 mmHg 70%
    21:00 -8°C° 0 mm 2 m/S 621 mmHg 71%
    22:00 -8°C° 0 mm 2 m/S 622 mmHg 72%
    23:00 -7°C° 0 mm 1 m/S 622 mmHg 73%
    Mehr zeigen